Flag for U.S.A. Weather past 2 weeks in New Orleans, Louisiana, U.S.A.

Now
75 °F

Passing clouds.


Feels Like: 75 °F
Forecast: 70 / 84 °F
Wind: 17 mph from Northwest

Location: Lakefront Airport

Current Time: Apr 19, 2015 at 7:43:55 AM

Latest Report: Apr 19, 2015 at 7:02 AM


Visibility: 10 mi

Pressure: 29.75 "Hg

Humidity: 85%

Dew point: 70 °F

Location of New OrleansLocation

Historic Weather in New Orleans — Graph

°F

New Orleans temperature yesterday

Maximum temperature yesterday: 80 °F (at 1:53 PM)
Minimum temperature yesterday: 73 °F (at 8:53 AM)
Average temperature yesterday: 75 °F

Past Weeks' High & Low Weather Summary

 TemperatureHumidityPressure
High87 °F (Apr 8, 2:53 PM)90% (Apr 14, 4:53 AM)30.23 "Hg (Apr 14, 4:53 AM)
Low61 °F (Apr 4, 10:53 AM)40% (Apr 4, 4:53 PM)29.76 "Hg (Apr 19, 4:53 AM)
Average75 °F76%30.02 "Hg
* Reported Apr 4 5:04 AM — Apr 19 5:53 AM, New Orleans, Weather by CustomWeather, © 2015

Note: Actual official high and low records may vary slightly from our data, if they occured in-between our weather recording intervals... More about our weather records

Advertising

New Orleans weather history for previous 24 hours

 ConditionsComfort  
Time TempWeatherWind HumidityBarometerVisibility
5:53 AM
Sun, Apr 19
75 °FPassing clouds.14 mph85%29.76 "Hg10 mi
4:53 AM75 °FPassing clouds.12 mph85%29.76 "Hg10 mi
3:53 AM75 °FOvercast.12 mph85%29.78 "Hg10 mi
2:53 AM74 °FPartly cloudy.12 mph85%29.78 "Hg10 mi
1:53 AM73 °FPassing clouds.13 mph81%29.77 "Hg10 mi
12:53 AM73 °FOvercast.14 mph81%29.78 "Hg10 mi
11:53 PM
Sat, Apr 18
73 °FPassing clouds.10 mph84%29.78 "Hg10 mi
10:53 PM73 °FClear.18 mph84%29.78 "Hg10 mi
9:53 PM73 °FPassing clouds.15 mph84%29.80 "Hg10 mi
8:53 PM73 °FPartly cloudy.13 mph84%29.84 "Hg10 mi
7:59 PM74 °FLight rain. Broken clouds.12 mph85%29.88 "Hg10 mi
6:53 PM75 °FLight rain. Partly sunny.9 mph85%29.85 "Hg9 mi
5:53 PM76 °FLight rain. Mostly cloudy.8 mph82%29.85 "Hg7 mi
4:53 PM77 °FCloudy.7 mph77%29.84 "Hg10 mi
3:53 PM78 °FScattered clouds.9 mph74%29.84 "Hg10 mi
3:00 PM79 °FScattered clouds.13 mph72%29.86 "Hg10 mi
1:53 PM80 °FPartly sunny.16 mph71%29.83 "Hg10 mi
12:53 PM76 °FPartly sunny.16 mph80%29.87 "Hg10 mi
11:53 AM76 °FPartly sunny.14 mph80%29.88 "Hg10 mi
10:53 AM74 °FHaze.8 mph85%29.91 "Hg10 mi
10:00 AM73 °FLight rain. Mostly cloudy.6 mph84%29.99 "Hg3 mi
8:53 AM73 °FLight rain. Fog.8 mph88%29.97 "Hg3 mi
7:53 AM74 °FLight rain. More clouds than sun.No wind79%29.93 "Hg3 mi
Weather by CustomWeather, © 2015

See weather overviewHow to use our weather pages